STARLINK-31928, 59897

Orbit data source: Space-Track

STARLINK-31928, 59897 is a payload satellite owned by SpaceX/Seattle (US) in LEO that was launched on Tue, 28 May 2024 UTC via an FALCON 9 launch vehicle from the Air Force Eastern Test Range (AFETR). Payload-class satellites include a variety of spacecraft equipped with specific instruments for various scientific and technological missions. These include communications satellites like Starlink; space stations such as the ISS; scientific satellites like the Hubble; Earth observation satellites from companies like Planet Labs, Umbra, and HawkEye 360; GPS; miniature CubeSats for education and research; and military/defense satellites.

Loading next visibility...
Identifier
59897, 2024-100N
Orbit
LEO
Country
Flag of USUS
Related business
Manufacturer
SpaceX/Seattle
Mission
Operational Commercial Communications
Bus & Motor
STARLINK V2M, Unknown motor
Mass
730 kg wet, ~700 kg dry
Launch date (UTC)
2024-05-28 (2 years ago)
Launch vehicle
FALCON 9
Launch site
Air Force Eastern Test Range (AFETR)
Object type
Payload
Rocket body
Debris
Shape & HBR
Box + 2 Pan, 17.7 m
Radar Cross Section
33.884 m², Large (>1 m²)

Expand to show TLE details & history
Last TLE update: 11 hours ago

TLE from 11 hours ago
0 STARLINK-31928
1 59897U 24100N   26126.16489396  .00001441  00000-0  61856-4 0  9998
2 59897  42.9998 161.0925 0001257 259.2315 100.8396 15.27581762109840
Epoch: 2026-05-06T03:57Z
TLE epoch observation values (Epoch: 2026-05-06T03:57:26.838Z)
Latitude
0.00005°
Longitude
-122.29858°
Altitude
482.981 km
Speed
7.626 km/s
True Right ascension
10h 44m 22s
True Declination
0° 00' 00"
Sunlit
Object was in full shadow at epoch
Visualization orbit readout
Latitude
Unknown
Longitude
Unknown
Altitude
Unknown
Speed
Unknown
Apparent Right ascension
Unknown
Apparent Declination
Unknown
Sunlit
N/A
Visualization observer readout
Local Sidereal Time
23:15:26
Azimuth
Unknown
Elevation
Unknown
Doppler factor
Unknown
Orbital elements
Apogee altitude
485.852 km
Perigee altitude
484.126 km
Semi-major axis
6,863.126 km
Eccentricity
0.00013
Inclination
42.9998°
RAAN
161.0925°
Arg. of periapsis
259.2315°
True anomaly
100.85375°
Mean anomaly
100.8396°
Eccentric anomaly
100.84667°
Mean motion
3.81733 °/min
Orbital period
94.31 mins
BSTAR
0.000061856
Loading maneuver chart data...
Computing Atmospheric mass density...
Loading historical data...
Loading historical data...
Loading historical data...
Loading historical data...
Loading historical data...
Loading historical data...
Loading historical data...

Documentation

Showing up to 5 results
|